ANA4 ROAH-RJTT

Flight info

Callsign ANA4
Flight time 2h 0m
Altitude 39000
Route AMAMI Y574 SHIBK Y57 SUKBO Y571 BILLY Y21 AKSEL
Aircraft B772/H-SDE2E3FGHIJ5LORVWXY/LB1D1

Departure

Time 2026-05-04 20:26
Airport Naha International Airport (ROAH)

Arrival

Time 2026-05-04 22:26
Airport Tokyo Haneda International Airport (RJTT)
Time Latitude Longitude Altitude Speed Heading
2026-05-04 19:59 26.20706 127.64924 26 ft 0 kts 28°
2026-05-04 20:14 26.20687 127.64913 25 ft 4 kts 22°
2026-05-04 20:14 26.20662 127.64906 32 ft 4 kts 350°
2026-05-04 20:14 26.20642 127.64918 32 ft 4 kts 295°
2026-05-04 20:15 26.20638 127.64935 32 ft 0 kts 268°
2026-05-04 20:18 26.20637 127.64921 32 ft 3 kts 268°
2026-05-04 20:18 26.20636 127.64895 31 ft 6 kts 267°
2026-05-04 20:19 26.20632 127.64810 26 ft 11 kts 259°
2026-05-04 20:19 26.20573 127.64756 27 ft 11 kts 189°
2026-05-04 20:19 26.20493 127.64761 26 ft 11 kts 178°
2026-05-04 20:19 26.20387 127.64765 26 ft 18 kts 178°
2026-05-04 20:20 26.20262 127.64771 26 ft 18 kts 177°
2026-05-04 20:20 26.20137 127.64777 26 ft 18 kts 177°
2026-05-04 20:20 26.20015 127.64784 26 ft 18 kts 177°
2026-05-04 20:20 26.19890 127.64790 26 ft 18 kts 178°
2026-05-04 20:21 26.19765 127.64794 26 ft 18 kts 178°
2026-05-04 20:21 26.19641 127.64800 26 ft 18 kts 177°
2026-05-04 20:21 26.19392 127.64811 27 ft 18 kts 178°
2026-05-04 20:22 26.19267 127.64816 27 ft 18 kts 178°
2026-05-04 20:22 26.19143 127.64822 27 ft 18 kts 177°
2026-05-04 20:22 26.19018 127.64829 27 ft 18 kts 177°
2026-05-04 20:22 26.18894 127.64835 27 ft 18 kts 178°
2026-05-04 20:23 26.18770 127.64841 27 ft 18 kts 177°
2026-05-04 20:23 26.18645 127.64848 27 ft 18 kts 177°
2026-05-04 20:23 26.18521 127.64853 27 ft 18 kts 177°
2026-05-04 20:23 26.18396 127.64859 27 ft 18 kts 178°
2026-05-04 20:24 26.18303 127.64862 27 ft 9 kts 184°
2026-05-04 20:24 26.18254 127.64825 27 ft 9 kts 243°
2026-05-04 20:24 26.18244 127.64756 26 ft 9 kts 273°
2026-05-04 20:24 26.18250 127.64686 25 ft 9 kts 288°
2026-05-04 20:25 26.18302 127.64654 29 ft 8 kts 355°
2026-05-04 20:25 26.18307 127.64654 30 ft 0 kts 355°
2026-05-04 20:25 26.18338 127.64651 29 ft 21 kts 356°
2026-05-04 20:25 26.18749 127.64631 29 ft 96 kts 359°
2026-05-04 20:26 26.19659 127.64590 35 ft 163 kts 357°
2026-05-04 20:26 26.20799 127.64503 739 ft 165 kts
2026-05-04 20:26 26.21924 127.64451 1802 ft 161 kts
2026-05-04 20:26 26.23136 127.64410 2185 ft 184 kts
2026-05-04 20:27 26.24489 127.64369 2371 ft 210 kts
2026-05-04 20:27 26.25993 127.64095 2514 ft 233 kts 337°
2026-05-04 20:27 26.27452 127.63151 2818 ft 249 kts 329°
2026-05-04 20:27 26.28979 127.62142 3367 ft 261 kts 330°
2026-05-04 20:28 26.30573 127.61126 4023 ft 267 kts 329°
2026-05-04 20:28 26.32196 127.60096 4802 ft 268 kts 328°
2026-05-04 20:28 26.33828 127.59062 5529 ft 271 kts 328°
2026-05-04 20:28 26.35469 127.58026 6284 ft 272 kts 327°
2026-05-04 20:29 26.37123 127.56981 7005 ft 273 kts 327°
2026-05-04 20:29 26.38784 127.55930 7693 ft 276 kts 326°
2026-05-04 20:29 26.40328 127.54715 8268 ft 271 kts 307°
2026-05-04 20:29 26.41185 127.52881 8934 ft 266 kts 280°
2026-05-04 20:30 26.41217 127.50848 9762 ft 262 kts 259°
2026-05-04 20:30 26.40646 127.48913 10400 ft 270 kts 243°
2026-05-04 20:30 26.39490 127.47172 10593 ft 296 kts 231°
2026-05-04 20:30 26.38066 127.45426 11089 ft 310 kts 230°
2026-05-04 20:31 26.36601 127.43624 11823 ft 318 kts 230°
2026-05-04 20:31 26.34950 127.41984 12522 ft 325 kts 213°
2026-05-04 20:31 26.32817 127.41039 13424 ft 336 kts 197°
2026-05-04 20:31 26.30472 127.40779 14421 ft 342 kts 185°
2026-05-04 20:32 26.28080 127.40827 15253 ft 346 kts 184°
2026-05-04 20:32 26.25651 127.40897 16051 ft 351 kts 184°
2026-05-04 20:32 26.23195 127.40959 16846 ft 356 kts 184°
2026-05-04 20:32 26.20704 127.41002 17628 ft 360 kts 185°
2026-05-04 20:33 26.18183 127.41032 18373 ft 365 kts 185°
2026-05-04 20:33 26.15624 127.41097 18961 ft 369 kts 180°
2026-05-04 20:33 26.13087 127.41899 19422 ft 393 kts 158°
2026-05-04 20:33 26.10850 127.43753 20058 ft 412 kts 138°
2026-05-04 20:34 26.09229 127.46450 20690 ft 429 kts 117°
2026-05-04 20:34 26.08563 127.49685 21259 ft 443 kts 93°
2026-05-04 20:34 26.08915 127.53103 21799 ft 448 kts 79°
2026-05-04 20:34 26.09592 127.56523 22244 ft 458 kts 77°
2026-05-04 20:35 26.10310 127.59999 22890 ft 462 kts 77°
2026-05-04 20:35 26.11019 127.63500 23633 ft 465 kts 78°
2026-05-04 20:35 26.11706 127.67027 24235 ft 469 kts 78°
2026-05-04 20:35 26.12379 127.70620 24771 ft 474 kts 78°
2026-05-04 20:36 26.13041 127.74236 25285 ft 481 kts 79°
2026-05-04 20:36 26.13696 127.77860 25781 ft 487 kts 79°
2026-05-04 20:36 26.14367 127.81577 26317 ft 492 kts 79°
2026-05-04 20:36 26.15045 127.85327 26867 ft 496 kts 79°
2026-05-04 20:37 26.15729 127.89111 27405 ft 501 kts 79°
2026-05-04 20:37 26.16675 127.92823 27742 ft 503 kts 64°
2026-05-04 20:37 26.18534 127.96121 28087 ft 504 kts 46°
2026-05-04 20:37 26.21072 127.98771 28572 ft 498 kts 30°
2026-05-04 20:38 26.23991 128.00787 29033 ft 495 kts 24°
2026-05-04 20:38 26.26983 128.02728 29427 ft 500 kts 24°
2026-05-04 20:38 26.30001 128.04683 29930 ft 504 kts 24°
2026-05-04 20:38 26.33025 128.06669 30417 ft 506 kts 24°
2026-05-04 20:39 26.36061 128.08691 30833 ft 509 kts 24°
2026-05-04 20:39 26.39100 128.10738 31219 ft 512 kts 25°
2026-05-04 20:39 26.42152 128.12807 31583 ft 516 kts 25°
2026-05-04 20:39 26.45226 128.14896 31966 ft 518 kts 24°
2026-05-04 20:40 26.48308 128.16994 32381 ft 520 kts 24°
2026-05-04 20:40 26.51404 128.19101 32810 ft 521 kts 24°
2026-05-04 20:40 26.54508 128.21212 33156 ft 524 kts 24°
2026-05-04 20:40 26.57632 128.23336 33447 ft 527 kts 24°
2026-05-04 20:41 26.60771 128.25472 33755 ft 530 kts 24°
2026-05-04 20:41 26.63884 128.27592 34069 ft 532 kts 24°
2026-05-04 20:41 26.67058 128.29765 34355 ft 535 kts 25°
2026-05-04 20:41 26.70035 128.32344 34608 ft 551 kts 41°
2026-05-04 20:42 26.72509 128.35648 34848 ft 557 kts 48°
2026-05-04 20:42 26.74838 128.39137 35102 ft 559 kts 49°
2026-05-04 20:42 26.77152 128.42637 35406 ft 559 kts 49°
2026-05-04 20:42 26.79498 128.46102 35763 ft 557 kts 48°
2026-05-04 20:43 26.81879 128.49520 36122 ft 556 kts 47°
2026-05-04 20:43 26.84285 128.52908 36502 ft 555 kts 47°
2026-05-04 20:43 26.86698 128.56284 36776 ft 555 kts 47°
2026-05-04 20:43 26.89108 128.59666 37055 ft 556 kts 47°
2026-05-04 20:44 26.91482 128.63011 37349 ft 554 kts 46°
2026-05-04 20:44 26.94119 128.66105 37570 ft 544 kts 32°
2026-05-04 20:44 26.97261 128.68319 37782 ft 527 kts 19°
2026-05-04 20:44 27.00537 128.70189 37970 ft 529 kts 19°
2026-05-04 20:45 27.03827 128.72060 38230 ft 530 kts 19°
2026-05-04 20:45 27.07105 128.73956 38523 ft 530 kts 19°
2026-05-04 20:45 27.10367 128.75882 38835 ft 530 kts 20°
2026-05-04 20:45 27.13616 128.77832 39049 ft 530 kts 20°
2026-05-04 20:46 27.20091 128.81768 39128 ft 531 kts 20°
2026-05-04 20:46 27.26625 128.85762 39151 ft 532 kts 20°
2026-05-04 20:47 27.33143 128.89740 39135 ft 533 kts 20°
2026-05-04 20:47 27.39629 128.93699 39142 ft 534 kts 20°
2026-05-04 20:48 27.46166 128.97693 39127 ft 535 kts 20°
2026-05-04 20:48 27.52711 129.01697 39132 ft 535 kts 20°
2026-05-04 20:49 27.58154 129.05033 39137 ft 535 kts 20°
2026-05-04 20:49 27.64696 129.09047 39136 ft 535 kts 20°
2026-05-04 20:50 27.71229 129.13062 39123 ft 534 kts 20°
2026-05-04 20:50 27.77754 129.17076 39136 ft 533 kts 20°
2026-05-04 20:51 27.84265 129.21087 39140 ft 533 kts 20°
2026-05-04 20:51 27.90777 129.25103 39137 ft 533 kts 20°
2026-05-04 20:52 27.97285 129.29124 39133 ft 533 kts 20°
2026-05-04 20:52 28.03748 129.33122 39143 ft 533 kts 20°
2026-05-04 20:53 28.10244 129.37146 39124 ft 532 kts 20°
2026-05-04 20:53 28.16740 129.41176 39131 ft 532 kts 20°
2026-05-04 20:54 28.23236 129.45212 39131 ft 531 kts 19°
2026-05-04 20:54 28.29714 129.49242 39129 ft 531 kts 20°
2026-05-04 20:55 28.36160 129.53256 39120 ft 531 kts 20°
2026-05-04 20:55 28.42198 129.58207 39081 ft 555 kts 45°
2026-05-04 20:56 28.44315 129.61920 39125 ft 567 kts 62°
2026-05-04 20:56 28.45559 129.66202 39206 ft 574 kts 81°
2026-05-04 20:56 28.46034 129.70694 39319 ft 574 kts 85°
2026-05-04 20:56 28.46399 129.75217 39482 ft 574 kts 85°
2026-05-04 20:57 28.46771 129.79728 39744 ft 573 kts 85°
2026-05-04 20:57 28.47188 129.84225 40026 ft 570 kts 84°
2026-05-04 20:57 28.47646 129.88693 40391 ft 567 kts 84°
2026-05-04 20:57 28.48129 129.93147 40575 ft 568 kts 84°
2026-05-04 20:58 28.48618 129.97599 40739 ft 568 kts 84°
2026-05-04 20:58 28.49095 130.02001 40936 ft 567 kts 84°
2026-05-04 20:58 28.49573 130.06445 41055 ft 567 kts 82°
2026-05-04 20:58 28.50356 130.10833 41138 ft 566 kts 73°
2026-05-04 20:59 28.53263 130.19112 41141 ft 562 kts 59°
2026-05-04 20:59 28.57538 130.26476 41145 ft 556 kts 50°
2026-05-04 21:00 28.62046 130.33649 41143 ft 557 kts 51°
2026-05-04 21:00 28.66474 130.40898 41142 ft 558 kts 51°
2026-05-04 21:01 28.70861 130.48190 41151 ft 558 kts 52°
2026-05-04 21:01 28.75229 130.55439 41131 ft 558 kts 51°
2026-05-04 21:02 28.79623 130.62741 41137 ft 559 kts 51°
2026-05-04 21:02 28.84013 130.70055 41137 ft 559 kts 51°
2026-05-04 21:03 28.88401 130.77381 41143 ft 560 kts 51°
2026-05-04 21:03 28.92793 130.84724 41139 ft 560 kts 51°
2026-05-04 21:04 28.97191 130.92091 41125 ft 561 kts 51°
2026-05-04 21:04 29.01583 130.99461 41144 ft 562 kts 52°
2026-05-04 21:05 29.05984 131.06859 41141 ft 562 kts 52°
2026-05-04 21:05 29.10378 131.14260 41122 ft 563 kts 52°
2026-05-04 21:06 29.14745 131.21627 41138 ft 562 kts 52°
2026-05-04 21:06 29.19137 131.29050 41137 ft 562 kts 52°
2026-05-04 21:07 29.23518 131.36467 41122 ft 562 kts 52°
2026-05-04 21:07 29.27898 131.43896 41143 ft 562 kts 52°
2026-05-04 21:08 29.32279 131.51341 41138 ft 562 kts 52°
2026-05-04 21:08 29.36649 131.58779 41126 ft 562 kts 52°
2026-05-04 21:09 29.40983 131.66172 41145 ft 565 kts 52°
2026-05-04 21:09 29.45382 131.73689 41150 ft 570 kts 52°
2026-05-04 21:10 29.49818 131.81287 41136 ft 573 kts 52°
2026-05-04 21:10 29.54248 131.88893 41131 ft 574 kts 52°
2026-05-04 21:11 29.58690 131.96532 41136 ft 575 kts 52°
2026-05-04 21:11 29.63104 132.04136 41128 ft 574 kts 52°
2026-05-04 21:12 29.67741 132.11575 41128 ft 570 kts 46°
2026-05-04 21:12 29.72787 132.18601 41136 ft 569 kts 45°
2026-05-04 21:13 29.77862 132.25591 41129 ft 568 kts 45°
2026-05-04 21:13 29.82904 132.32625 41136 ft 570 kts 46°
2026-05-04 21:14 29.87926 132.39700 41136 ft 571 kts 46°
2026-05-04 21:14 29.92941 132.46788 41150 ft 570 kts 46°
2026-05-04 21:15 29.97968 132.53897 41133 ft 572 kts 46°
2026-05-04 21:15 30.02960 132.60963 41133 ft 572 kts 46°
2026-05-04 21:16 30.07990 132.68095 41131 ft 573 kts 46°
2026-05-04 21:16 30.13027 132.75250 41152 ft 574 kts 46°
2026-05-04 21:17 30.18067 132.82422 41135 ft 575 kts 46°
2026-05-04 21:17 30.23114 132.89619 41150 ft 577 kts 46°
2026-05-04 21:18 30.28163 132.96831 41143 ft 577 kts 46°
2026-05-04 21:18 30.33218 133.04065 41169 ft 578 kts 46°
2026-05-04 21:19 30.38278 133.11320 41148 ft 579 kts 46°
2026-05-04 21:19 30.43342 133.18592 41150 ft 580 kts 46°
2026-05-04 21:20 30.48369 133.25826 41132 ft 580 kts 46°
2026-05-04 21:20 30.53424 133.33113 41147 ft 579 kts 46°
2026-05-04 21:21 30.58462 133.40389 41168 ft 578 kts 46°
2026-05-04 21:21 30.63501 133.47679 41149 ft 578 kts 46°
2026-05-04 21:22 30.68522 133.54959 41149 ft 577 kts 46°
2026-05-04 21:22 30.73547 133.62255 41164 ft 578 kts 47°
2026-05-04 21:23 30.78538 133.69518 41148 ft 578 kts 47°
2026-05-04 21:23 30.83560 133.76838 41153 ft 578 kts 47°
2026-05-04 21:24 30.88585 133.84170 41133 ft 580 kts 47°
2026-05-04 21:24 30.93612 133.91525 41147 ft 580 kts 47°
2026-05-04 21:25 30.98641 133.98895 41158 ft 581 kts 47°
2026-05-04 21:25 31.03674 134.06288 41139 ft 581 kts 47°
2026-05-04 21:26 31.08694 134.13675 41188 ft 581 kts 47°
2026-05-04 21:26 31.13721 134.21084 41155 ft 582 kts 47°
2026-05-04 21:27 31.18752 134.28515 41146 ft 582 kts 47°
2026-05-04 21:27 31.23777 134.35950 41155 ft 584 kts 47°
2026-05-04 21:28 31.28806 134.43405 41131 ft 584 kts 47°
2026-05-04 21:28 31.33826 134.50864 41170 ft 584 kts 47°
2026-05-04 21:29 31.38853 134.58345 41158 ft 585 kts 47°
2026-05-04 21:29 31.43847 134.65793 41144 ft 584 kts 47°
2026-05-04 21:30 31.48869 134.73296 41167 ft 585 kts 47°
2026-05-04 21:30 31.53888 134.80810 41164 ft 586 kts 47°
2026-05-04 21:31 31.61428 134.92125 41159 ft 587 kts 48°
2026-05-04 21:32 31.66452 134.99686 41158 ft 588 kts 48°
2026-05-04 21:32 31.71486 135.07257 41155 ft 587 kts 47°
2026-05-04 21:33 31.76831 135.14468 41160 ft 584 kts 43°
2026-05-04 21:33 31.82318 135.21514 41169 ft 584 kts 42°
2026-05-04 21:34 31.87787 135.28573 41164 ft 584 kts 43°
2026-05-04 21:34 31.93233 135.35691 41155 ft 585 kts 43°
2026-05-04 21:35 31.98663 135.42829 41158 ft 585 kts 43°
2026-05-04 21:35 32.04053 135.49922 41161 ft 585 kts 43°
2026-05-04 21:36 32.09481 135.57073 41157 ft 585 kts 43°
2026-05-04 21:36 32.14915 135.64241 41168 ft 586 kts 43°
2026-05-04 21:37 32.19430 135.70209 41157 ft 586 kts 43°
2026-05-04 21:37 32.24856 135.77396 41172 ft 587 kts 43°
2026-05-04 21:38 32.30290 135.84607 41160 ft 587 kts 43°
2026-05-04 21:38 32.35720 135.91828 41157 ft 587 kts 43°
2026-05-04 21:39 32.41144 135.99055 41172 ft 588 kts 43°
2026-05-04 21:39 32.46574 136.06287 41164 ft 588 kts 43°
2026-05-04 21:40 32.52023 136.13528 41157 ft 588 kts 43°
2026-05-04 21:40 32.57467 136.20776 41165 ft 589 kts 43°
2026-05-04 21:41 32.62912 136.28047 41149 ft 589 kts 43°
2026-05-04 21:41 32.68344 136.35317 41158 ft 589 kts 43°
2026-05-04 21:42 32.73778 136.42605 41158 ft 589 kts 43°
2026-05-04 21:42 32.79207 136.49899 41160 ft 589 kts 44°
2026-05-04 21:43 32.84591 136.57149 41166 ft 588 kts 44°
2026-05-04 21:43 32.90003 136.64450 41162 ft 588 kts 44°
2026-05-04 21:44 32.95409 136.71767 41164 ft 588 kts 44°
2026-05-04 21:44 33.00799 136.79093 41163 ft 588 kts 44°
2026-05-04 21:45 33.06183 136.86427 41169 ft 588 kts 44°
2026-05-04 21:45 33.11564 136.93770 41166 ft 588 kts 44°
2026-05-04 21:46 33.16943 137.01123 41213 ft 589 kts 44°
2026-05-04 21:46 33.22341 137.08518 41169 ft 590 kts 44°
2026-05-04 21:47 33.27700 137.15868 41151 ft 588 kts 44°
2026-05-04 21:47 33.30375 137.19542 40937 ft 585 kts 44°
2026-05-04 21:47 33.33049 137.23216 40582 ft 586 kts 44°
2026-05-04 21:47 33.35721 137.26890 40298 ft 584 kts 44°
2026-05-04 21:48 33.38383 137.30556 40029 ft 583 kts 44°
2026-05-04 21:48 33.41042 137.34223 39787 ft 581 kts 44°
2026-05-04 21:48 33.43686 137.37872 39577 ft 579 kts 44°
2026-05-04 21:48 33.46318 137.41510 39361 ft 577 kts 44°
2026-05-04 21:49 33.48941 137.45136 39140 ft 575 kts 43°
2026-05-04 21:49 33.51557 137.48758 38919 ft 574 kts 43°
2026-05-04 21:49 33.54165 137.52371 38670 ft 572 kts 43°
2026-05-04 21:49 33.56770 137.55983 38429 ft 571 kts 44°
2026-05-04 21:50 33.59341 137.59608 38233 ft 570 kts 46°
2026-05-04 21:50 33.61714 137.63415 37996 ft 571 kts 52°
2026-05-04 21:50 33.63769 137.67430 37770 ft 572 kts 59°
2026-05-04 21:50 33.65666 137.71619 37557 ft 570 kts 60°
2026-05-04 21:51 33.67529 137.75816 37395 ft 568 kts 60°
2026-05-04 21:51 33.69390 137.80006 37144 ft 568 kts 60°
2026-05-04 21:51 33.71258 137.84172 36902 ft 566 kts 60°
2026-05-04 21:51 33.73139 137.88327 36674 ft 565 kts 59°
2026-05-04 21:52 33.75024 137.92465 36497 ft 563 kts 59°
2026-05-04 21:52 33.76903 137.96581 36306 ft 561 kts 59°
2026-05-04 21:52 33.78777 138.00688 36125 ft 559 kts 60°
2026-05-04 21:52 33.80642 138.04785 35906 ft 557 kts 60°
2026-05-04 21:53 33.82474 138.08818 35709 ft 556 kts 60°
2026-05-04 21:53 33.84325 138.12904 35507 ft 555 kts 60°
2026-05-04 21:53 33.86166 138.16972 35303 ft 554 kts 60°
2026-05-04 21:53 33.88008 138.21046 35138 ft 552 kts 60°
2026-05-04 21:54 33.89836 138.25095 34954 ft 551 kts 60°
2026-05-04 21:54 33.91661 138.29140 34756 ft 550 kts 60°
2026-05-04 21:54 33.93480 138.33196 34565 ft 548 kts 60°
2026-05-04 21:54 33.95284 138.37236 34379 ft 547 kts 61°
2026-05-04 21:55 33.97080 138.41269 34199 ft 546 kts 61°
2026-05-04 21:55 33.98872 138.45301 34024 ft 545 kts 61°
2026-05-04 21:55 34.00656 138.49317 33820 ft 543 kts 61°
2026-05-04 21:55 34.02439 138.53331 33630 ft 542 kts 61°
2026-05-04 21:56 34.04212 138.57326 33459 ft 540 kts 61°
2026-05-04 21:56 34.05978 138.61310 33272 ft 538 kts 61°
2026-05-04 21:56 34.07736 138.65279 33099 ft 536 kts 61°
2026-05-04 21:56 34.09489 138.69242 32934 ft 534 kts 61°
2026-05-04 21:57 34.11234 138.73190 32780 ft 532 kts 61°
2026-05-04 21:57 34.12971 138.77126 32607 ft 530 kts 62°
2026-05-04 21:57 34.14701 138.81053 32442 ft 529 kts 62°
2026-05-04 21:57 34.16424 138.84965 32271 ft 527 kts 62°
2026-05-04 21:58 34.18139 138.88865 32049 ft 524 kts 62°
2026-05-04 21:58 34.19844 138.92745 31683 ft 522 kts 62°
2026-05-04 21:58 34.21536 138.96605 31322 ft 519 kts 62°
2026-05-04 21:58 34.23209 139.00464 30965 ft 517 kts 63°
2026-05-04 21:59 34.24866 139.04305 30581 ft 515 kts 63°
2026-05-04 21:59 34.26518 139.08136 30210 ft 513 kts 63°
2026-05-04 21:59 34.28158 139.11954 29769 ft 511 kts 64°
2026-05-04 21:59 34.29639 139.15845 29311 ft 507 kts 68°
2026-05-04 22:00 34.30984 139.19710 28878 ft 504 kts 69°
2026-05-04 22:00 34.32315 139.23625 28453 ft 501 kts 69°
2026-05-04 22:00 34.33633 139.27519 28041 ft 499 kts 69°
2026-05-04 22:00 34.34949 139.31386 27625 ft 496 kts 69°
2026-05-04 22:01 34.36268 139.35237 27218 ft 494 kts 68°
2026-05-04 22:01 34.37585 139.39068 26802 ft 492 kts 68°
2026-05-04 22:01 34.38896 139.42879 26394 ft 489 kts 68°
2026-05-04 22:01 34.40205 139.46681 25988 ft 487 kts 68°
2026-05-04 22:02 34.41506 139.50467 25573 ft 486 kts 67°
2026-05-04 22:02 34.42799 139.54236 25161 ft 485 kts 67°
2026-05-04 22:02 34.44089 139.58004 24747 ft 484 kts 67°
2026-05-04 22:02 34.45376 139.61765 24330 ft 481 kts 66°
2026-05-04 22:03 34.46626 139.65425 23896 ft 461 kts 66°
2026-05-04 22:03 34.48019 139.68886 23505 ft 454 kts 53°
2026-05-04 22:03 34.49928 139.71870 23078 ft 444 kts 40°
2026-05-04 22:03 34.52187 139.74356 22668 ft 433 kts 28°
2026-05-04 22:04 34.54689 139.76272 22270 ft 420 kts 20°
2026-05-04 22:04 34.57213 139.78041 21882 ft 418 kts 20°
2026-05-04 22:04 34.59685 139.79796 21458 ft 401 kts 21°
2026-05-04 22:04 34.62065 139.81513 21113 ft 397 kts 21°
2026-05-04 22:05 34.64429 139.83230 20738 ft 395 kts 22°
2026-05-04 22:05 34.66783 139.84951 20357 ft 394 kts 22°
2026-05-04 22:05 34.69129 139.86676 19981 ft 394 kts 22°
2026-05-04 22:05 34.71404 139.88377 19563 ft 373 kts 22°
2026-05-04 22:06 34.73547 139.89981 19220 ft 364 kts 22°
2026-05-04 22:06 34.75701 139.91580 18891 ft 363 kts 22°
2026-05-04 22:06 34.77862 139.93182 18501 ft 363 kts 23°
2026-05-04 22:06 34.79904 139.94976 18044 ft 368 kts 40°
2026-05-04 22:07 34.81322 139.97610 17677 ft 378 kts 65°
2026-05-04 22:07 34.81914 140.00715 17281 ft 376 kts 83°
2026-05-04 22:07 34.82199 140.03859 16902 ft 374 kts 82°
2026-05-04 22:07 34.82517 140.06994 16507 ft 373 kts 82°
2026-05-04 22:08 34.82873 140.10117 16108 ft 368 kts 77°
2026-05-04 22:08 34.83717 140.12989 15713 ft 353 kts 54°
2026-05-04 22:08 34.84986 140.15508 15375 ft 348 kts 53°
2026-05-04 22:08 34.86210 140.18054 15008 ft 349 kts 55°
2026-05-04 22:09 34.87401 140.20629 14631 ft 349 kts 56°
2026-05-04 22:09 34.88588 140.23205 14261 ft 346 kts 53°
2026-05-04 22:09 34.90059 140.25424 13808 ft 328 kts 30°
2026-05-04 22:09 34.91897 140.26965 13420 ft 318 kts 26°
2026-05-04 22:10 34.93693 140.28486 12998 ft 321 kts 28°
2026-05-04 22:10 34.95515 140.30089 12538 ft 323 kts 29°
2026-05-04 22:10 34.97337 140.31630 12233 ft 309 kts 21°
2026-05-04 22:10 34.99286 140.32332 12099 ft 281 kts 354°
2026-05-04 22:11 35.01121 140.32002 11981 ft 257 kts 333°
2026-05-04 22:11 35.02663 140.31020 11768 ft 246 kts 320°
2026-05-04 22:11 35.04000 140.29736 11560 ft 244 kts 311°
2026-05-04 22:11 35.04976 140.28090 11337 ft 239 kts 292°
2026-05-04 22:12 35.05596 140.26208 11148 ft 240 kts 290°
2026-05-04 22:12 35.06227 140.24298 10944 ft 243 kts 291°
2026-05-04 22:12 35.06867 140.22365 10731 ft 246 kts 291°
2026-05-04 22:12 35.07515 140.20414 10515 ft 250 kts 291°
2026-05-04 22:13 35.08170 140.18449 10286 ft 249 kts 292°
2026-05-04 22:13 35.08820 140.16500 10052 ft 246 kts 292°
2026-05-04 22:13 35.09464 140.14573 9827 ft 244 kts 292°
2026-05-04 22:13 35.10107 140.12649 9607 ft 245 kts 292°
2026-05-04 22:14 35.10744 140.10746 9386 ft 246 kts 292°
2026-05-04 22:14 35.11390 140.08813 9181 ft 246 kts 292°
2026-05-04 22:14 35.12039 140.06872 8953 ft 247 kts 292°
2026-05-04 22:14 35.12684 140.04943 8743 ft 246 kts 292°
2026-05-04 22:15 35.13332 140.03000 8526 ft 246 kts 292°
2026-05-04 22:15 35.13978 140.01063 8303 ft 246 kts 292°
2026-05-04 22:15 35.14623 139.99131 8105 ft 245 kts 292°
2026-05-04 22:15 35.15267 139.97200 7861 ft 245 kts 292°
2026-05-04 22:16 35.15908 139.95275 7645 ft 244 kts 292°
2026-05-04 22:16 35.16546 139.93359 7424 ft 242 kts 292°
2026-05-04 22:16 35.17174 139.91472 7239 ft 236 kts 292°
2026-05-04 22:16 35.17789 139.89627 7004 ft 235 kts 291°
2026-05-04 22:17 35.18409 139.87763 6759 ft 236 kts 291°
2026-05-04 22:17 35.19020 139.85925 6523 ft 230 kts 291°
2026-05-04 22:17 35.19615 139.84128 6289 ft 231 kts 291°
2026-05-04 22:17 35.20270 139.82380 6050 ft 224 kts 303°
2026-05-04 22:18 35.21454 139.81163 5819 ft 226 kts 332°
2026-05-04 22:18 35.22945 139.80530 5601 ft 228 kts 342°
2026-05-04 22:18 35.24471 139.80059 5357 ft 223 kts 343°
2026-05-04 22:18 35.25944 139.79612 5111 ft 219 kts 343°
2026-05-04 22:19 35.27402 139.79163 4908 ft 212 kts 343°
2026-05-04 22:19 35.28787 139.78731 4666 ft 201 kts 342°
2026-05-04 22:19 35.30108 139.78317 4426 ft 191 kts 342°
2026-05-04 22:19 35.31389 139.78080 4215 ft 186 kts
2026-05-04 22:20 35.32610 139.78613 4031 ft 189 kts 23°
2026-05-04 22:20 35.33744 139.79464 3851 ft 193 kts 26°
2026-05-04 22:20 35.34857 139.80337 3625 ft 184 kts 25°
2026-05-04 22:20 35.35911 139.81165 3429 ft 175 kts 25°
2026-05-04 22:21 35.36934 139.81963 3255 ft 174 kts 25°
2026-05-04 22:21 35.37971 139.82767 3080 ft 179 kts 25°
2026-05-04 22:21 35.39016 139.83579 2887 ft 177 kts 25°
2026-05-04 22:21 35.40049 139.84384 2691 ft 174 kts 25°
2026-05-04 22:22 35.41085 139.85082 2481 ft 163 kts
2026-05-04 22:22 35.42185 139.85113 2344 ft 158 kts 354°
2026-05-04 22:22 35.43249 139.85108 2158 ft 147 kts 355°
2026-05-04 22:22 35.44192 139.84908 2050 ft 134 kts 335°
2026-05-04 22:23 35.45026 139.84441 1997 ft 134 kts 335°
2026-05-04 22:23 35.45887 139.83976 1826 ft 133 kts 335°
2026-05-04 22:23 35.46704 139.83481 1649 ft 129 kts 332°
2026-05-04 22:23 35.47445 139.82975 1482 ft 115 kts 332°
2026-05-04 22:24 35.48111 139.82507 1322 ft 107 kts 332°
2026-05-04 22:24 35.48754 139.82052 1179 ft 107 kts 332°
2026-05-04 22:24 35.49409 139.81588 1044 ft 111 kts 330°
2026-05-04 22:24 35.49854 139.81271 934 ft 112 kts 330°
2026-05-04 22:25 35.50540 139.80783 773 ft 114 kts 332°
2026-05-04 22:25 35.51223 139.80307 585 ft 114 kts 332°
2026-05-04 22:25 35.51922 139.79831 408 ft 113 kts 329°
2026-05-04 22:25 35.52635 139.79320 362 ft 125 kts 328°
2026-05-04 22:26 35.53387 139.78768 164 ft 125 kts 327°
2026-05-04 22:26 35.54111 139.78245 37 ft 118 kts 329°
2026-05-04 22:26 35.54728 139.77806 29 ft 83 kts 330°
2026-05-04 22:26 35.55103 139.77540 29 ft 48 kts 330°
2026-05-04 22:27 35.55330 139.77388 29 ft 27 kts 341°
2026-05-04 22:27 35.55491 139.77350 29 ft 16 kts 356°
2026-05-04 22:27 35.55556 139.77363 27 ft 8 kts 31°
2026-05-04 22:27 35.55590 139.77412 28 ft 8 kts 55°
2026-05-04 22:28 35.55618 139.77466 27 ft 8 kts 62°
2026-05-04 22:28 35.55626 139.77529 28 ft 8 kts 102°
2026-05-04 22:28 35.55592 139.77577 29 ft 8 kts 147°
2026-05-04 22:28 35.55547 139.77611 29 ft 8 kts 149°
2026-05-04 22:29 35.55449 139.77678 29 ft 19 kts 151°
2026-05-04 22:29 35.55374 139.77760 29 ft 11 kts 102°
2026-05-04 22:29 35.55365 139.77849 29 ft 7 kts 111°
2026-05-04 22:29 35.55370 139.77903 29 ft 7 kts 66°
2026-05-04 22:30 35.55392 139.77951 29 ft 6 kts 60°
2026-05-04 22:30 35.55395 139.77958 27 ft 0 kts 60°